518  
ASUS44 KLIX 040511  
RWRLIX  
NEW ORLEANS REGIONAL WEATHER ROUNDUP  
NATIONAL WEATHER SERVICE NEW ORLEANS LA  
1200 AM CDT SAT JUL 04 2020  
 
NOTE: "FAIR" INDICATES FEW OR NO CLOUDS BELOW 12,000 FEET WITH NO  
SIGNIFICANT WEATHER AND/OR S TO VISIBILITY
.  
SKY/WX - SKY CONDITION AND SIGNIFICANT WEATHER.  
TMP - AIR TEMPERATURE. DP - DEWPOINT TEMPERATURE.  
RH - RELATIVE HUMIDITY. PRES - PRESSURE.  
HI - HEAT INDEX. WCI - WIND CHILL INDEX.  
 
* THESE STATIONS ARE NOT NWS OR FAA STATIONS AND ARE NOT UNDER  
NWS QUALITY CONTROL.  
 
LAZ038-040-048-061>063-065>067-069-040600-  
SOUTHEAST LOUISIANA  
 
CITY SKY/WX TMP DP RH WIND PRES REMARKS
 
N.O. INTL ARPT MOCLDY 78 74 87 CALM 29.94F  
N.O. LAKEFRONT MOCLDY 82 71 69 NW15 29.95S  
N.O. DOWNTOWN* FAIR 80 72 76 CALM 29.96S  
SLIDELL PTCLDY 76 72 87 CALM 29.94R  
BATON ROUGE MOCLDY 76 72 87 N3 29.94S  
BOOTHVILLE* FAIR 78 72 81 W5 29.96R  
BELLE CHASSE* PTCLDY 77 75 93 CALM 29.94  
BOGALUSA* FAIR 76 73 88 CALM 29.95S  
GALLIANO* MOCLDY 73 72 94 CALM 29.95S  
NEW ROADS* FAIR 73 72 94 W3 29.94F  
HAMMOND* MOCLDY 73 72 94 CALM 29.94S  
HOUMA* MOCLDY 75 73 95 CALM 29.94F  
PORT FOURCHON* CLEAR 77 73 88 N6 29.95S  
 

 
 
MSZ070-080>082-040600-  
SOUTHERN MISSISSIPPI  
 
CITY SKY/WX TMP DP RH WIND PRES REMARKS
 
MCCOMB NOT AVBL  
GULFPORT PTCLDY 78 73 84 NW8 29.92R  
BILOXI MOCLDY 77 71 83 CALM 29.91S  
PASCAGOULA MOCLDY 77 72 84 NE5 29.91F  
 

 
 
COASTAL OBSERVATIONS  
LAKE AND NEARSHORE STATIONS  
 
STATION/POSITION TIME SKY/WX TEMP WIND PRES WAVE
 
AIR SEA DIR/SP/G HT/PER  
(UTC) (F) (DEG/KT/KT) (MB) (FT/S)  
WAVELAND YACHT 0430 80 85 310/ 6/ 9 1014.0  
GRAND ISLE 0430 83 N/A  
SOUTHWEST PASS 0430 81 310/ 10/ 12 1012.5  
NEW CANAL 0430 80 86 300/ 2/ 10 1013.2  
SHELL BEACH 0430 81 87 310/ 16/ 18 1014.1  
 
OFFSHORE STATIONS  
 
STATION/POSITION TIME SKY/WX TEMP WIND PRES WAVE
 
AIR SEA DIR/SP/G HT/PER  
(UTC) (F) (DEG/KT/KT) (MB) (FT/S)  
64 S DAUPHIN ISL 0450 83 300/ 10/ 12 1013.6 2/ 4  
 

 
 
 
 
CLICK HERE TO GO TO PREVIOUS BULLETINS.

The Nexlab LA Page
The Nexlab MS Page Main Text Page